Total_Precipitation_Accumulation
0.00 0.00 0.00 0.00 0.00 0.00 0.00 0.00 0.00 0.00 0.00 0.00 0.00 0.00 0.00 0.00 0.00 0.00 0.00 0.00 0.00 0.00 0.00 0.00 0.05 0.01 0.00 0.01 0.04 0.03 0.03 0.02 0.02 0.05 0.07 0.16 0.05 0.00 0.00 0.01 0.01 0.00 0.01
0.00 0.00 0.00 0.00 0.00 0.00 0.00 0.00 0.00 0.00 0.00 0.00 0.00 0.00 0.00 0.00 0.00 0.00 0.00 0.00 0.00 0.00 0.00 0.00 0.05 0.01 0.00 0.00 0.02 0.01 0.00 0.00 0.01 0.01 0.02 0.13 0.10 0.00 0.00 0.03 0.00 0.01 0.01
0.00 0.00 0.00 0.00 0.00 0.00 0.00 0.00 0.00 0.00 0.01 0.00 0.00 0.00 0.00 0.00 0.00 0.00 0.00 0.00 0.00 0.00 0.01 0.00 0.05 0.07 0.01 0.00 0.00 0.00 0.01 0.00 0.01 0.02 0.00 0.03 0.02 0.03 0.01 0.06 0.03 0.05 0.05
0.00 0.00 0.00 0.00 0.00 0.00 0.00 0.00 0.00 0.00 0.00 0.00 0.00 0.00 0.00 0.00 0.01 0.02 0.04 0.02 0.02 0.01 0.04 0.02 0.01 0.13 0.16 0.02 0.00 0.00 0.03 0.02 0.00 0.00 0.00 0.00 0.00 0.06 0.05 0.05 0.05 0.10 0.10
0.00 0.00 0.00 0.00 0.00 0.00 0.00 0.00 0.00 0.01 0.00 0.00 0.00 0.00 0.00 0.00 0.01 0.03 0.05 0.05 0.03 0.03 0.03 0.02 0.04 0.05 0.14 0.07 0.03 0.02 0.03 0.05 0.01 0.00 0.00 0.01 0.04 0.04 0.11 0.12 0.14 0.14 0.10
0.00 0.00 0.00 0.00 0.00 0.01 0.00 0.00 0.01 0.00 0.00 0.00 0.00 0.00 0.00 0.01 0.02 0.01 0.02 0.02 0.00 0.01 0.01 0.03 0.06 0.11 0.16 0.22 0.14 0.08 0.11 0.09 0.01 0.00 0.04 0.14 0.25 0.13 0.21 0.15 0.15 0.12 0.14
0.00 0.00 0.00 0.00 0.00 0.01 0.01 0.00 0.00 0.00 0.00 0.00 0.00 0.00 0.00 0.02 0.05 0.01 0.02 0.01 0.00 0.00 0.00 0.01 0.04 0.11 0.13 0.17 0.20 0.11 0.06 0.03 0.01 0.02 0.09 0.20 0.33 0.20 0.26 0.22 0.19 0.19 0.15
0.00 0.00 0.00 0.00 0.00 0.01 0.01 0.01 0.01 0.00 0.00 0.00 0.00 0.00 0.00 0.01 0.04 0.01 0.00 0.00 0.00 0.00 0.02 0.04 0.09 0.16 0.14 0.33 0.20 0.13 0.11 0.02 0.03 0.07 0.12 0.21 0.75 0.39 0.37 0.27 0.17 0.18 0.09
0.00 0.00 0.00 0.00 0.00 0.00 0.00 0.01 0.01 0.01 0.00 0.00 0.00 0.00 0.00 0.00 0.02 0.04 0.01 0.00 0.00 0.00 0.03 0.05 0.04 0.06 0.17 0.26 0.23 0.23 0.26 0.23 0.20 0.10 0.14 0.32 1.81 0.96 0.77 0.57 0.49 0.36 0.39
0.00 0.00 0.00 0.00 0.00 0.00 0.00 0.00 0.00 0.01 0.01 0.00 0.00 0.00 0.00 0.00 0.00 0.01 0.02 0.02 0.02 0.01 0.04 0.09 0.06 0.06 0.16 0.13 0.17 0.21 0.20 0.26 0.36 0.22 0.19 0.42 1.69 1.85 1.11 0.69 0.53 0.51 0.67
0.00 0.00 0.00 0.00 0.00 0.00 0.00 0.00 0.00 0.00 0.01 0.00 0.00 0.00 0.00 0.00 0.00 0.00 0.00 0.00 0.01 0.04 0.09 0.17 0.11 0.23 0.22 0.20 0.18 0.12 0.16 0.19 0.26 0.32 0.31 0.60 1.60 1.98 0.97 0.86 0.49 0.55 0.59
0.00 0.00 0.00 0.00 0.00 0.00 0.00 0.00 0.00 0.00 0.00 0.00 0.00 0.00 0.00 0.00 0.00 0.00 0.00 0.00 0.04 0.07 0.11 0.13 0.12 0.09 0.13 0.16 0.16 0.08 0.11 0.18 0.31 0.34 0.39 0.90 1.01 1.17 0.74 0.77 0.40 0.36 0.27
0.01 0.00 0.00 0.00 0.00 0.00 0.00 0.00 0.00 0.00 0.00 0.00 0.00 0.00 0.00 0.00 0.00 0.00 0.00 0.00 0.00 0.02 0.13 0.21 0.09 0.08 0.07 0.12 0.15 0.07 0.06 0.11 0.26 0.43 0.49 0.66 0.43 0.40 0.34 0.37 0.17 0.07 0.03
0.00 0.00 0.01 0.00 0.00 0.00 0.00 0.00 0.00 0.00 0.00 0.00 0.00 0.00 0.00 0.00 0.00 0.00 0.00 0.00 0.00 0.01 0.05 0.16 0.08 0.08 0.07 0.10 0.10 0.08 0.04 0.07 0.16 0.33 0.75 0.17 0.22 0.20 0.15 0.12 0.05 0.01 0.01
0.00 0.00 0.01 0.01 0.01 0.01 0.01 0.00 0.00 0.00 0.00 0.00 0.00 0.00 0.00 0.00 0.00 0.00 0.01 0.04 0.03 0.03 0.06 0.13 0.16 0.11 0.07 0.07 0.06 0.10 0.07 0.07 0.09 0.21 0.70 0.17 0.14 0.12 0.09 0.09 0.08 0.03 0.01
0.00 0.00 0.01 0.02 0.05 0.05 0.03 0.01 0.00 0.00 0.00 0.00 0.00 0.00 0.00 0.00 0.00 0.00 0.00 0.03 0.04 0.07 0.12 0.30 0.25 0.16 0.11 0.06 0.08 0.15 0.14 0.12 0.08 0.10 0.24 0.23 0.12 0.04 0.03 0.05 0.06 0.05 0.01
0.00 0.02 0.02 0.01 0.05 0.07 0.05 0.02 0.00 0.00 0.00 0.00 0.00 0.00 0.00 0.00 0.00 0.00 0.00 0.01 0.04 0.16 0.18 0.36 0.28 0.23 0.24 0.18 0.12 0.25 0.23 0.17 0.12 0.10 0.10 0.15 0.07 0.02 0.02 0.01 0.02 0.02 0.00
0.00 0.01 0.04 0.02 0.07 0.09 0.07 0.03 0.00 0.00 0.00 0.00 0.00 0.00 0.00 0.00 0.00 0.00 0.00 0.03 0.05 0.19 0.17 0.30 0.34 0.27 0.26 0.28 0.18 0.25 0.20 0.14 0.08 0.08 0.08 0.03 0.02 0.01 0.00 0.00 0.00 0.00 0.00
0.01 0.01 0.05 0.07 0.07 0.13 0.10 0.07 0.02 0.00 0.00 0.00 0.00 0.00 0.00 0.00 0.00 0.00 0.01 0.07 0.07 0.15 0.09 0.14 0.29 0.13 0.10 0.18 0.12 0.11 0.12 0.12 0.08 0.03 0.02 0.01 0.01 0.01 0.01 0.00 0.00 0.00 0.00
0.02 0.01 0.01 0.06 0.08 0.18 0.19 0.13 0.04 0.01 0.01 0.00 0.00 0.00 0.00 0.00 0.00 0.00 0.03 0.05 0.07 0.12 0.06 0.05 0.12 0.17 0.09 0.05 0.05 0.06 0.13 0.14 0.11 0.03 0.01 0.00 0.00 0.00 0.00 0.00 0.00 0.00 0.00
0.01 0.02 0.01 0.03 0.06 0.16 0.24 0.26 0.13 0.03 0.01 0.00 0.00 0.00 0.00 0.00 0.00 0.00 0.04 0.09 0.07 0.05 0.02 0.01 0.07 0.18 0.25 0.15 0.09 0.10 0.11 0.06 0.04 0.01 0.00 0.00 0.00 0.00 0.00 0.00 0.00 0.00 0.00
0.01 0.01 0.02 0.02 0.04 0.09 0.21 0.24 0.16 0.06 0.01 0.00 0.00 0.00 0.00 0.00 0.00 0.01 0.04 0.08 0.09 0.05 0.02 0.00 0.02 0.12 0.32 0.28 0.13 0.07 0.05 0.04 0.02 0.01 0.00 0.00 0.00 0.00 0.00 0.00 0.00 0.00 0.00
0.00 0.01 0.01 0.03 0.03 0.05 0.13 0.24 0.19 0.08 0.04 0.01 0.01 0.01 0.00 0.00 0.01 0.02 0.03 0.04 0.08 0.04 0.03 0.00 0.00 0.02 0.09 0.19 0.16 0.10 0.03 0.01 0.01 0.01 0.01 0.00 0.00 0.00 0.00 0.00 0.00 0.00 0.00
0.00 0.00 0.00 0.01 0.05 0.06 0.06 0.18 0.32 0.29 0.14 0.02 0.00 0.00 0.00 0.00 0.01 0.01 0.03 0.03 0.03 0.04 0.03 0.02 0.01 0.02 0.01 0.06 0.09 0.06 0.04 0.02 0.03 0.02 0.01 0.01 0.00 0.00 0.00 0.00 0.00 0.00 0.00
0.03 0.00 0.00 0.01 0.02 0.04 0.10 0.13 0.25 0.34 0.26 0.07 0.01 0.00 0.00 0.00 0.00 0.01 0.02 0.04 0.03 0.03 0.03 0.05 0.05 0.03 0.02 0.01 0.01 0.01 0.04 0.07 0.04 0.03 0.02 0.01 0.00 0.00 0.00 0.00 0.00 0.00 0.00
0.10 0.04 0.01 0.00 0.00 0.02 0.05 0.14 0.17 0.30 0.34 0.19 0.05 0.01 0.00 0.00 0.00 0.00 0.01 0.02 0.03 0.03 0.05 0.05 0.06 0.03 0.03 0.02 0.01 0.01 0.01 0.04 0.04 0.01 0.00 0.00 0.00 0.00 0.00 0.00 0.00 0.00 0.00